sat.trackr.live / text

‹ back to catalog

STARLINK-33706

NORAD 63461 · 2025-070B

PAYLOAD ACTIVE UNKNOWN

§ Identity

Operator
Country
US
Launch date
2025-04-06
Launch site
AFETR
Launch vehicle
Mass (kg)
RCS (m²)

Purposes: comms

External: N2YO · Heavens-Above · Gunter

§ Orbital elements

Epoch: 2026-05-25T03:11:51.961056Z

Period
94.27 min
Inclination
43.0006°
Eccentricity
0.0004938
Mean motion
15.27585199 rev/d
Perigee alt
479.6 km
Apogee alt
486.4 km
Semi-major
6,861.2 km
B*
6.5328e-4
RAAN
188.4222°
Arg perigee
296.4645°
Mean anomaly
63.5700°
Rev number
6,466

§ Raw data

STARLINK-337061 63461U 25070B   26145.13324029  .00017765  00000+0  65328-3 0  99982 63461  43.0006 188.4222 0004938 296.4645  63.5700 15.27585199 64667

JSON: /api/v1/satellites/63461 · /tle

For live sub-satellite position, see the globe view (requires WebGL).

§ Visibility from observer

Set your observer location to see the next 7 days of passes ≥ 10°. The values pass through the URL so the page stays shareable.

No JS? Fill the form by hand. The geolocation button needs JavaScript.